{"data":{"norad_id":44457,"epoch":"2026-05-25T07:13:23.210976Z","epoch_age_seconds":59721,"freshness":"FRESH","line1":"1 44457U 19048A   26145.30096309  .00000079  00000+0  00000+0 0  9998","line2":"2 44457   0.0473  98.4967 0000604  53.0795 211.6698  1.00269731 24998","mean_motion":1.00269731,"eccentricity":6.04e-5,"inclination_deg":0.0473,"raan_deg":98.4967,"arg_perigee_deg":53.0795,"mean_anomaly_deg":211.6698,"bstar":0,"rev_number":2499,"period_min":1436.1263221101,"perigee_km":35784.623997192,"apogee_km":35789.717566372,"semimajor_km":42165.307781782,"source":"CELESTRAK","updated_at":"2026-05-25T13:38:14.087756Z"}}